When you browse on this site, cookies collect data to enhance your experience and personalize the content and advertising you see.
Visit our Privacy Policy to learn more. By continuing to use the site, you agree to this use of cookies and data.
  • In Austria
  • List of Countries
  • For 7 days
  • Water Temperature
  • Satellite Maps
  • Weather Map
  • News
  • Weather Widgets
  • user-avatar
    Login

    Hourly Weather San Luis

    Today, 19 November, Monday

    Time Temperature Precipitation Wind Pressure Humidity
    00:00 +20°C° 0 mm 8 mps 698 mmHg 33%
    01:00 +19°C° 0 mm 9 mps 698 mmHg 33%
    02:00 +19°C° 0 mm 10 mps 698 mmHg 34%
    03:00 +18°C° 0 mm 9 mps 698 mmHg 35%
    04:00 +18°C° 0 mm 9 mps 698 mmHg 36%
    05:00 +18°C° 0 mm 8 mps 697 mmHg 37%
    06:00 +19°C° 0 mm 9 mps 698 mmHg 36%
    07:00 +22°C° 0 mm 9 mps 698 mmHg 35%
    08:00 +24°C° 0 mm 10 mps 699 mmHg 33%
    09:00 +26°C° 0 mm 9 mps 698 mmHg 31%
    10:00 +28°C° 0 mm 9 mps 698 mmHg 28%
    11:00 +31°C° 0 mm 8 mps 698 mmHg 25%
    12:00 +32°C° 0 mm 8 mps 698 mmHg 24%
    13:00 +33°C° 0 mm 8 mps 697 mmHg 23%
    14:00 +34°C° 0 mm 8 mps 697 mmHg 21%
    15:00 +34°C° 0 mm 7 mps 696 mmHg 22%
    16:00 +33°C° 0 mm 7 mps 696 mmHg 23%
    17:00 +33°C° 0 mm 7 mps 695 mmHg 24%
    18:00 +30°C° 0 mm 6 mps 695 mmHg 29%
    19:00 +28°C° 0 mm 6 mps 695 mmHg 33%
    20:00 +26°C° 0 mm 5 mps 696 mmHg 38%
    21:00 +26°C° 0 mm 7 mps 696 mmHg 41%
    22:00 +24°C° 0 mm 8 mps 696 mmHg 44%
    23:00 +23°C° 0 mm 9 mps 697 mmHg 47%

    Tomorrow, 20 November, Tuesday

    Time Temperature Precipitation Wind Pressure Humidity
    00:00 +23°C° 0 mm 9 mps 697 mmHg 48%
    01:00 +22°C° 0 mm 9 mps 696 mmHg 49%
    02:00 +22°C° 0 mm 9 mps 696 mmHg 50%
    03:00 +21°C° 0 mm 8 mps 696 mmHg 51%
    04:00 +21°C° 0 mm 8 mps 696 mmHg 53%
    05:00 +21°C° 0 mm 7 mps 696 mmHg 54%
    06:00 +22°C° 0 mm 7 mps 697 mmHg 49%
    07:00 +24°C° 0 mm 7 mps 698 mmHg 44%
    08:00 +27°C° 0 mm 7 mps 699 mmHg 39%
    09:00 +28°C° 0 mm 6 mps 699 mmHg 36%
    10:00 +30°C° 0 mm 5 mps 699 mmHg 33%
    11:00 +33°C° 0 mm 4 mps 699 mmHg 29%
    12:00 +34°C° 0 mm 4 mps 698 mmHg 27%
    13:00 +35°C° 0 mm 3 mps 698 mmHg 25%
    14:00 +35°C° 0 mm 3 mps 697 mmHg 24%
    15:00 +36°C° 0 mm 4 mps 697 mmHg 23%
    16:00 +36°C° 0 mm 4 mps 696 mmHg 23%
    17:00 +36°C° 0 mm 4 mps 695 mmHg 23%
    18:00 +34°C° 0 mm 5 mps 695 mmHg 27%
    19:00 +32°C° 0 mm 5 mps 695 mmHg 30%
    20:00 +29°C° 0 mm 5 mps 695 mmHg 34%
    21:00 +28°C° 0 mm 6 mps 696 mmHg 38%
    22:00 +28°C° 0 mm 7 mps 696 mmHg 41%
    23:00 +27°C° 0 mm 8 mps 696 mmHg 44%

    Day after tomorrow, 21 November, Wednesday

    Time Temperature Precipitation Wind Pressure Humidity
    00:00 +27°C° 0 mm 8 mps 696 mmHg 47%
    01:00 +26°C° 0 mm 8 mps 696 mmHg 50%
    02:00 +26°C° 0 mm 8 mps 695 mmHg 53%
    03:00 +26°C° 0 mm 8 mps 695 mmHg 54%
    04:00 +24°C° 0 mm 8 mps 695 mmHg 56%
    05:00 +24°C° 0 mm 7 mps 695 mmHg 57%
    06:00 +26°C° 0 mm 7 mps 696 mmHg 51%
    07:00 +28°C° 0 mm 8 mps 696 mmHg 46%
    08:00 +31°C° 0 mm 8 mps 697 mmHg 40%
    09:00 +33°C° 0 mm 7 mps 697 mmHg 35%
    10:00 +34°C° 0 mm 6 mps 697 mmHg 30%
    11:00 +36°C° 0 mm 5 mps 697 mmHg 25%
    12:00 +37°C° 0 mm 5 mps 696 mmHg 23%
    13:00 +39°C° 0 mm 5 mps 695 mmHg 21%
    14:00 +40°C° 0 mm 5 mps 694 mmHg 18%
    15:00 +40°C° 0 mm 5 mps 694 mmHg 18%
    16:00 +40°C° 0 mm 5 mps 693 mmHg 18%
    17:00 +39°C° 0 mm 5 mps 693 mmHg 17%
    18:00 +36°C° 0 mm 5 mps 693 mmHg 22%
    19:00 +34°C° 0 mm 5 mps 692 mmHg 27%
    20:00 +32°C° 0 mm 5 mps 692 mmHg 32%
    21:00 +30°C° 0 mm 5 mps 692 mmHg 35%
    22:00 +30°C° 0 mm 6 mps 693 mmHg 39%
    23:00 +29°C° 0 mm 7 mps 693 mmHg 43%

    22 November, Thursday

    Time Temperature Precipitation Wind Pressure Humidity
    00:00 +29°C° 0.2 mm 8 mps 693 mmHg 45%
    01:00 +29°C° 0.2 mm 8 mps 692 mmHg 48%
    02:00 +29°C° 0.2 mm 9 mps 692 mmHg 50%
    03:00 +28°C° 0.2 mm 8 mps 693 mmHg 53%
    04:00 +27°C° 0.2 mm 6 mps 693 mmHg 56%
    05:00 +26°C° 0.2 mm 5 mps 693 mmHg 59%
    06:00 +24°C° 2 mm 8 mps 694 mmHg 62%
    07:00 +22°C° 2 mm 10 mps 695 mmHg 64%
    08:00 +21°C° 2 mm 12 mps 696 mmHg 67%
    09:00 +22°C° 0.3 mm 12 mps 697 mmHg 62%
    10:00 +23°C° 0.3 mm 11 mps 698 mmHg 56%
    11:00 +24°C° 0.3 mm 11 mps 699 mmHg 51%
    12:00 +26°C° 0 mm 11 mps 699 mmHg 46%
    13:00 +27°C° 0 mm 11 mps 699 mmHg 42%
    14:00 +28°C° 0 mm 11 mps 699 mmHg 37%
    15:00 +28°C° 0 mm 10 mps 699 mmHg 36%
    16:00 +28°C° 0 mm 10 mps 698 mmHg 35%
    17:00 +27°C° 0 mm 9 mps 698 mmHg 34%
    18:00 +26°C° 0 mm 9 mps 698 mmHg 38%
    19:00 +23°C° 0 mm 8 mps 699 mmHg 42%
    20:00 +22°C° 0 mm 8 mps 699 mmHg 46%
    21:00 +21°C° 0 mm 8 mps 699 mmHg 49%
    22:00 +19°C° 0 mm 9 mps 700 mmHg 52%
    23:00 +18°C° 0 mm 9 mps 700 mmHg 55%

    23 November, Friday

    Time Temperature Precipitation Wind Pressure Humidity
    00:00 +17°C° 0 mm 8 mps 700 mmHg 60%
    01:00 +16°C° 0 mm 8 mps 700 mmHg 66%
    02:00 +16°C° 0 mm 7 mps 699 mmHg 72%
    03:00 +15°C° 0 mm 7 mps 699 mmHg 73%
    04:00 +15°C° 0 mm 6 mps 699 mmHg 74%
    05:00 +14°C° 0 mm 6 mps 699 mmHg 75%
    06:00 +16°C° 0 mm 6 mps 700 mmHg 68%
    07:00 +17°C° 0 mm 6 mps 700 mmHg 61%
    08:00 +20°C° 0 mm 6 mps 700 mmHg 54%
    09:00 +21°C° 0 mm 5 mps 700 mmHg 47%
    10:00 +23°C° 0 mm 5 mps 700 mmHg 40%
    11:00 +26°C° 0 mm 5 mps 700 mmHg 33%
    12:00 +27°C° 0 mm 5 mps 699 mmHg 32%
    13:00 +28°C° 0 mm 5 mps 699 mmHg 31%
    14:00 +29°C° 0 mm 6 mps 698 mmHg 30%
    15:00 +28°C° 0 mm 6 mps 697 mmHg 31%
    16:00 +28°C° 0 mm 7 mps 697 mmHg 32%
    17:00 +27°C° 0 mm 8 mps 697 mmHg 33%
    18:00 +26°C° 0 mm 8 mps 697 mmHg 38%
    19:00 +23°C° 0 mm 8 mps 697 mmHg 43%
    20:00 +21°C° 0 mm 7 mps 697 mmHg 48%
    21:00 +21°C° 0 mm 7 mps 697 mmHg 50%
    22:00 +21°C° 0 mm 6 mps 697 mmHg 53%
    23:00 +20°C° 0 mm 5 mps 697 mmHg 56%

    24 November, Saturday

    Time Temperature Precipitation Wind Pressure Humidity
    00:00 +20°C° 0 mm 5 mps 697 mmHg 58%
    01:00 +20°C° 0 mm 5 mps 697 mmHg 60%
    02:00 +20°C° 0 mm 5 mps 697 mmHg 62%
    03:00 +19°C° 0 mm 5 mps 697 mmHg 65%
    04:00 +19°C° 0 mm 4 mps 697 mmHg 69%
    05:00 +19°C° 0 mm 4 mps 697 mmHg 72%
    06:00 +20°C° 0 mm 4 mps 698 mmHg 66%
    07:00 +22°C° 0 mm 4 mps 698 mmHg 61%
    08:00 +25°C° 0 mm 4 mps 699 mmHg 55%
    09:00 +27°C° 0 mm 4 mps 699 mmHg 50%
    10:00 +28°C° 0 mm 4 mps 699 mmHg 45%
    11:00 +30°C° 0 mm 4 mps 698 mmHg 40%
    12:00 +30°C° 0.1 mm 3 mps 698 mmHg 39%
    13:00 +31°C° 0.1 mm 3 mps 697 mmHg 38%
    14:00 +31°C° 0.1 mm 3 mps 696 mmHg 37%
    15:00 +32°C° 0 mm 4 mps 696 mmHg 38%
    16:00 +32°C° 0 mm 5 mps 696 mmHg 39%
    17:00 +30°C° 0 mm 6 mps 695 mmHg 40%
    18:00 +29°C° 0 mm 6 mps 695 mmHg 43%
    19:00 +28°C° 0 mm 6 mps 696 mmHg 46%
    20:00 +26°C° 0 mm 6 mps 696 mmHg 49%
    21:00 +26°C° 0 mm 6 mps 696 mmHg 50%
    22:00 +24°C° 0 mm 6 mps 696 mmHg 52%
    23:00 +24°C° 0 mm 6 mps 696 mmHg 53%
    Show more